Flag for Norway Weather past 2 weeks in Larvik, Norway

Now
36 °F

Chilly.


Feels Like: 28 °F
Forecast: 35 / 47 °F
Wind: 10 mph from Northwest

Location: Torp

Current Time: Apr 2, 2015 at 12:16:20 AM

Latest Report: Apr 1, 2015 at 11:20 PM


Visibility: N/A

Pressure: 29.45 "Hg

Humidity: 56%

Dew point: 21 °F

Location of LarvikLocation

Historic Weather in Larvik — Graph

°F

Larvik temperature yesterday

Maximum temperature yesterday: 48 °F (at 1:50 PM)
Minimum temperature yesterday: 30 °F (at 7:20 AM)
Average temperature yesterday: 40 °F

Past Weeks' High & Low Weather Summary

 TemperatureHumidityPressure
High50 °F (Mar 24, 2:50 PM)100% (Mar 18, 10:50 AM)30.60 "Hg (Mar 18, 10:50 AM)
Low27 °F (Mar 28, 5:50 AM)33% (Mar 21, 3:20 PM)28.91 "Hg (Mar 30, 4:50 AM)
Average37 °F81%29.77 "Hg
* Reported Mar 17 9:20 PM — Apr 1 10:20 PM, Larvik, Weather by CustomWeather, © 2015

Note: Actual official high and low records may vary slightly from our data, if they occured in-between our weather recording intervals... More about our weather records

Advertising

Larvik weather history for previous 24 hours

 ConditionsComfort  
Time TempWeatherWind HumidityBarometerVisibility
10:20 PM
Wed, Apr 1
36 °FClear.10 mph56%29.42 "Hg10 mi
9:50 PM37 °FClear.12 mph52%29.42 "Hg10 mi
9:20 PM37 °FClear.8 mph52%29.42 "Hg10 mi
8:50 PM39 °FPassing clouds.9 mph48%29.42 "HgN/A
8:20 PM39 °FPassing clouds.10 mph48%29.42 "HgN/A
7:50 PM41 °FScattered clouds.14 mph45%29.42 "HgN/A
7:20 PM43 °FScattered clouds.16 mph42%29.39 "HgN/A
6:50 PM45 °FScattered clouds.18 mph42%29.39 "HgN/A
6:20 PM45 °FScattered showers. Scattered clouds.12 mph46%29.39 "HgN/A
5:50 PM43 °FScattered showers. Scattered clouds.18 mph49%29.36 "HgN/A
5:20 PM43 °FScattered showers. Scattered clouds.13 mph53%29.36 "HgN/A
4:50 PM46 °FScattered showers. Scattered clouds.15 mph34%29.36 "HgN/A
4:20 PM48 °FScattered showers. Passing clouds.12 mph37%29.33 "HgN/A
3:50 PM48 °FSunny.15 mph34%29.33 "Hg10 mi
3:20 PM48 °FSunny.16 mph37%29.33 "Hg10 mi
2:50 PM46 °FPassing clouds.12 mph34%29.33 "HgN/A
2:20 PM46 °FSunny.15 mph37%29.33 "Hg10 mi
1:50 PM48 °FPassing clouds.12 mph34%29.30 "HgN/A
1:20 PM46 °FSunny.12 mph40%29.30 "Hg10 mi
12:50 PM46 °FSunny.13 mph40%29.30 "Hg10 mi
12:20 PM46 °FSunny.14 mph37%29.30 "Hg10 mi
11:50 AM46 °FSunny.12 mph37%29.30 "Hg10 mi
11:20 AM45 °FSunny.12 mph39%29.27 "Hg10 mi
10:50 AM45 °FPassing clouds.10 mph42%29.27 "HgN/A
10:20 AM43 °FPassing clouds.6 mph46%29.27 "HgN/A
9:50 AM39 °FSunny.8 mph56%29.27 "Hg10 mi
9:20 AM39 °FSunny.6 mph56%29.24 "Hg10 mi
8:50 AM36 °FSunny.7 mph65%29.24 "Hg10 mi
8:20 AM36 °FSunny.7 mph60%29.24 "Hg10 mi
7:50 AM32 °FSunny.7 mph69%29.24 "Hg10 mi
7:20 AM30 °FClear.5 mph69%29.21 "Hg10 mi
6:50 AM32 °FPassing clouds.3 mph64%29.21 "HgN/A
6:20 AM32 °FClear.5 mph64%29.21 "Hg10 mi
5:50 AM32 °FClear.7 mph69%29.21 "Hg10 mi
5:20 AM32 °FChilly.6 mph69%29.18 "HgN/A
4:50 AM32 °FChilly.7 mph69%29.18 "HgN/A
4:20 AM34 °FChilly.6 mph65%29.18 "HgN/A
3:50 AM34 °FChilly.5 mph65%29.18 "HgN/A
3:20 AM34 °FChilly.7 mph70%29.15 "HgN/A
2:50 AM36 °FChilly.6 mph65%29.15 "HgN/A
2:20 AM36 °FChilly.7 mph65%29.15 "HgN/A
1:50 AM36 °FChilly.6 mph70%29.15 "HgN/A
1:20 AM36 °FChilly.5 mph70%29.15 "HgN/A
12:50 AM36 °FChilly.5 mph75%29.15 "HgN/A
12:20 AM37 °FChilly.5 mph70%29.12 "HgN/A
Weather by CustomWeather, © 2015

See weather overviewHow to use our weather pages